| time (UTC) | temp C | wind direction | speed KPH | gust KPH | rain 1hr cm | rain 24hr cm | rain mn cm | humidity % | barometer mb |
| 20260505040946 | 21 | 125 | 9.7 | 20.9 | 0.00 | 0.00 | 0.00 | 48 | 1021.5 |
| 20260505040046 | 21 | 134 | 9.7 | 20.9 | 0.00 | 0.00 | 0.00 | 49 | 1021.6 |
| 20260505035148 | 21 | 139 | 8.0 | 20.9 | 0.00 | 0.00 | 0.00 | 50 | 1021.5 |
| 20260505034248 | 21 | 146 | 8.0 | 24.1 | 0.00 | 0.00 | 0.00 | 50 | 1021.6 |
| 20260505033346 | 21 | 141 | 8.0 | 20.9 | 0.00 | 0.00 | 0.00 | 46 | 1021.5 |
| 20260505032446 | 21 | 136 | 8.0 | 20.9 | 0.00 | 0.00 | 0.00 | 48 | 1021.5 |
| 20260505031547 | 21 | 132 | 8.0 | 19.3 | 0.00 | 0.00 | 0.00 | 46 | 1021.2 |
| 20260505030647 | 21 | 146 | 6.4 | 19.3 | 0.00 | 0.00 | 0.00 | 49 | 1021.3 |
| 20260505025746 | 21 | 150 | 8.0 | 17.7 | 0.00 | 0.00 | 0.00 | 49 | 1021.3 |
| 20260505024846 | 21 | 136 | 8.0 | 24.1 | 0.00 | 0.00 | 0.00 | 49 | 1021.3 |
| 20260505023946 | 21 | 137 | 8.0 | 20.9 | 0.00 | 0.00 | 0.00 | 47 | 1021.2 |
| 20260505023046 | 21 | 143 | 8.0 | 20.9 | 0.00 | 0.00 | 0.00 | 46 | 1021.2 |
| 20260505022147 | 20 | 141 | 8.0 | 20.9 | 0.00 | 0.00 | 0.00 | 46 | 1021.2 |
| 20260505021248 | 20 | 155 | 8.0 | 20.9 | 0.00 | 0.00 | 0.00 | 46 | 1021.1 |
| 20260505020346 | 20 | 136 | 9.7 | 20.9 | 0.00 | 0.00 | 0.00 | 51 | 1021.0 |
| 20260505015446 | 20 | 128 | 9.7 | 19.3 | 0.00 | 0.00 | 0.00 | 50 | 1021.0 |
| 20260505014546 | 20 | 123 | 9.7 | 16.1 | 0.00 | 0.00 | 0.00 | 48 | 1020.8 |
| 20260505013647 | 20 | 129 | 9.7 | 17.7 | 0.00 | 0.00 | 0.00 | 49 | 1020.8 |
| 20260505012746 | 21 | 123 | 9.7 | 17.7 | 0.00 | 0.00 | 0.00 | 52 | 1021.0 |
| 20260505005147 | 21 | 123 | 8.0 | 16.1 | 0.00 | 0.00 | 0.00 | 49 | 1021.0 |
| 20260505004248 | 21 | 130 | 6.4 | 16.1 | 0.00 | 0.00 | 0.00 | 48 | 1021.0 |
| 20260505003346 | 21 | 128 | 4.8 | 14.5 | 0.00 | 0.00 | 0.00 | 49 | 1020.9 |
| 20260505002447 | 20 | 151 | 3.2 | 12.9 | 0.00 | 0.00 | 0.00 | 49 | 1020.9 |
| 20260505001546 | 20 | 133 | 4.8 | 14.5 | 0.00 | 0.00 | 0.00 | 48 | 1020.8 |
| 20260504235746 | 20 | 107 | 4.8 | 12.9 | 0.00 | 0.00 | 0.00 | 48 | 1020.5 |
| 20260504234846 | 19 | 102 | 3.2 | 11.3 | 0.00 | 0.00 | 0.00 | 50 | 1020.4 |
| 20260504233946 | 17 | 55 | 3.2 | 8.0 | 0.00 | 0.00 | 0.00 | 54 | 1020.3 |
| 20260504233046 | 17 | 338 | 6.4 | 12.9 | 0.00 | 0.00 | 0.00 | 55 | 1020.3 |
| 20260504231246 | 16 | 343 | 6.4 | 11.3 | 0.00 | 0.00 | 0.00 | 54 | 1020.3 |
| 20260504225449 | 15 | 346 | 6.4 | 8.0 | 0.00 | 0.00 | 0.00 | 55 | 1020.0 |
| 20260504224547 | 15 | 346 | 6.4 | 11.3 | 0.00 | 0.00 | 0.00 | 56 | 1019.9 |
| 20260504222748 | 15 | 359 | 4.8 | 8.0 | 0.00 | 0.00 | 0.00 | 58 | 1019.8 |
| 20260504220947 | 14 | 341 | 6.4 | 12.9 | 0.00 | 0.00 | 0.00 | 59 | 1019.4 |
| 20260504220046 | 13 | 332 | 4.8 | 8.0 | 0.00 | 0.00 | 0.00 | 59 | 1019.0 |
| 20260504215148 | 13 | 330 | 6.4 | 9.7 | 0.00 | 0.00 | 0.00 | 60 | 1018.8 |
| 20260504214247 | 13 | 332 | 4.8 | 9.7 | 0.00 | 0.00 | 0.00 | 61 | 1018.6 |
| 20260504213347 | 13 | 332 | 3.2 | 6.4 | 0.00 | 0.00 | 0.00 | 61 | 1018.4 |
| 20260504212446 | 12 | 314 | 6.4 | 12.9 | 0.00 | 0.00 | 0.00 | 64 | 1018.4 |
| 20260504211547 | 12 | 307 | 4.8 | 12.9 | 0.00 | 0.00 | 0.00 | 65 | 1018.2 |
| 20260504205746 | 12 | 322 | 6.4 | 12.9 | 0.00 | 0.00 | 0.00 | 66 | 1017.8 |
| 20260504204846 | 12 | 326 | 6.4 | 12.9 | 0.00 | 0.00 | 0.00 | 65 | 1017.7 |
| 20260504202146 | 11 | 317 | 6.4 | 9.7 | 0.00 | 0.03 | 0.00 | 65 | 1017.0 |
| 20260504201248 | 11 | 318 | 8.0 | 14.5 | 0.00 | 0.03 | 0.00 | 65 | 1016.7 |
| 20260504195446 | 12 | 327 | 11.3 | 19.3 | 0.00 | 0.05 | 0.00 | 63 | 1016.3 |
| 20260504192748 | 12 | 319 | 9.7 | 20.9 | 0.00 | 0.20 | 0.00 | 64 | 1016.0 |
| 20260504191848 | 12 | 318 | 11.3 | 20.9 | 0.00 | 0.23 | 0.00 | 64 | 1015.7 |
| 20260504190948 | 12 | 318 | 16.1 | 24.1 | 0.00 | 0.23 | 0.00 | 64 | 1015.5 |
| 20260504190047 | 12 | 319 | 17.7 | 27.4 | 0.00 | 0.25 | 0.00 | 64 | 1015.4 |
| 20260504185147 | 12 | 318 | 16.1 | 32.2 | 0.00 | 0.38 | 0.00 | 64 | 1015.0 |
| 20260504184246 | 12 | 309 | 16.1 | 27.4 | 0.00 | 0.51 | 0.00 | 64 | 1014.9 |
| 20260504183346 | 12 | 307 | 14.5 | 27.4 | 0.00 | 0.61 | 0.00 | 64 | 1014.6 |
| 20260504182446 | 12 | 304 | 12.9 | 25.7 | 0.00 | 0.61 | 0.00 | 63 | 1014.6 |
| 20260504181546 | 12 | 312 | 12.9 | 25.7 | 0.00 | 0.61 | 0.00 | 63 | 1014.7 |
| 20260504180646 | 13 | 315 | 12.9 | 19.3 | 0.00 | 0.61 | 0.00 | 63 | 1014.6 |
| 20260504175746 | 13 | 316 | 12.9 | 27.4 | 0.00 | 0.61 | 0.00 | 62 | 1014.4 |
| 20260504174846 | 13 | 325 | 12.9 | 24.1 | 0.00 | 0.61 | 0.00 | 62 | 1014.4 |
| 20260504173948 | 13 | 319 | 14.5 | 27.4 | 0.00 | 0.61 | 0.00 | 61 | 1014.5 |
| 20260504173046 | 13 | 313 | 14.5 | 25.7 | 0.00 | 0.61 | 0.00 | 61 | 1014.4 |
| 20260504172147 | 13 | 320 | 16.1 | 32.2 | 0.00 | 0.61 | 0.00 | 61 | 1014.1 |
| 20260504171247 | 13 | 313 | 19.3 | 33.8 | 0.00 | 0.61 | 0.00 | 62 | 1013.8 |
| 20260504150646 | 14 | 318 | 17.7 | 29.0 | 0.00 | 1.02 | 0.00 | 62 | 1012.8 |
| 20260504141246 | 14 | 326 | 19.3 | 32.2 | 0.00 | 2.51 | 1.09 | 60 | 1012.4 |
| 20260504140346 | 14 | 320 | 16.1 | 25.7 | 0.00 | 2.77 | 1.09 | 60 | 1012.5 |